Theta_e
309 309 309 309 308 307 305 303 302 303 304 306 307 306 304 303 303 301 301 305 298 295 298 299 297 296 299 298 295 299 296 299 296 292 292 292 293 294 292 294 292 290 288 287 289 286 283 301 299 291 299 302 301 300
308 308 308 308 308 306 304 303 302 303 304 305 307 306 304 303 303 302 297 304 302 295 298 303 302 304 302 302 299 301 297 296 295 294 295 296 292 293 292 288 297 290 294 290 292 293 301 302 301 304 304 301 301 300
309 309 308 308 307 306 304 303 303 303 303 305 307 307 304 302 303 302 299 302 299 295 299 300 300 305 306 305 308 297 300 301 299 303 297 293 290 294 288 292 293 295 300 293 293 297 297 300 303 303 304 301 300 300
308 308 308 308 307 306 304 304 303 303 303 304 306 307 304 302 303 303 299 302 299 296 292 300 306 302 307 307 307 306 304 304 303 302 296 297 290 298 293 293 293 293 296 292 292 296 295 298 300 303 301 301 300 300
307 307 308 308 307 306 304 304 303 302 302 304 305 307 303 301 302 302 301 302 302 295 293 296 304 306 307 307 305 306 304 301 299 295 296 293 298 297 297 297 292 293 290 286 286 292 292 293 300 302 299 299 300 295
307 307 307 307 307 307 305 303 302 303 303 303 305 307 303 301 301 299 294 302 303 301 293 290 303 303 305 305 304 302 301 300 297 296 296 298 300 299 291 291 292 295 297 292 289 293 295 301 303 302 300 300 298 296
307 307 307 307 307 307 305 303 303 303 303 303 304 304 301 300 300 294 295 298 303 303 294 291 296 302 304 303 304 303 302 299 297 296 296 297 297 295 290 287 294 295 293 294 298 299 297 301 299 301 301 301 299 298
306 306 307 307 307 306 304 303 303 303 303 303 304 301 300 299 298 294 299 302 303 299 296 289 293 298 304 299 299 305 299 298 298 298 298 294 297 297 291 294 293 292 291 294 296 296 301 302 302 300 300 300 296 294
306 306 306 307 307 306 304 304 303 303 303 303 301 299 298 296 294 298 305 302 303 297 290 291 292 292 302 299 301 300 303 294 299 294 294 296 294 291 292 290 290 290 288 289 293 299 302 300 301 299 298 299 295 293
305 306 306 307 307 305 304 303 303 303 303 300 299 294 291 297 304 304 298 294 293 294 295 292 298 294 300 298 295 296 300 296 290 293 295 293 293 295 295 292 292 291 292 294 293 294 297 300 300 298 297 298 296 294
305 306 306 307 306 305 304 303 303 302 300 296 292 292 298 302 300 298 292 290 290 289 292 295 297 295 300 293 295 298 298 298 290 289 290 291 288 292 296 293 293 294 294 295 297 300 301 302 300 298 298 299 296 294
305 306 306 306 306 304 304 303 301 299 296 296 296 298 298 295 293 289 288 292 291 289 295 295 296 298 298 303 298 299 293 296 287 295 290 287 289 294 295 295 294 294 294 294 298 299 302 303 303 300 299 299 297 295
305 306 306 306 305 304 303 303 301 298 298 297 294 292 292 291 284 284 283 288 289 295 297 296 293 296 297 299 297 295 289 290 300 291 289 289 295 295 295 295 295 296 295 295 296 299 301 302 304 301 299 300 299 295
305 306 306 305 304 304 303 302 299 299 297 291 289 284 285 286 287 289 292 294 298 298 297 296 295 293 298 293 294 289 294 294 289 286 286 292 293 293 294 293 294 294 294 294 294 295 299 300 303 304 301 300 299 297
305 305 305 304 303 303 302 300 300 299 295 290 290 285 286 292 295 297 298 296 297 297 295 294 296 296 296 292 293 291 287 284 287 287 289 294 293 293 292 291 292 292 294 294 293 292 296 299 301 301 302 301 300 298
304 305 302 303 303 302 301 299 296 295 293 291 291 289 292 291 293 295 295 294 298 297 298 297 293 290 290 291 286 286 285 284 286 289 294 295 293 292 291 291 292 292 293 294 293 291 293 297 299 301 303 301 300 298
303 300 303 303 302 301 298 293 292 290 290 289 289 293 294 294 295 295 296 296 299 295 292 294 287 287 294 287 283 291 286 289 293 295 296 294 292 292 292 292 292 292 293 294 293 291 292 296 300 301 299 302 301 299
300 302 303 300 298 296 294 294 292 289 286 290 289 292 294 296 296 296 298 298 297 296 295 291 296 290 289 284 289 290 292 294 296 296 295 292 292 292 292 291 292 292 292 293 293 291 291 293 295 296 299 300 301 300
301 301 299 299 297 294 291 291 293 288 289 292 293 295 295 296 299 299 299 300 302 300 298 294 290 291 292 295 293 293 295 297 296 295 295 294 293 293 292 292 292 291 291 292 292 291 290 291 290 292 296 297 300 300
300 299 299 299 300 294 290 291 296 292 289 292 294 293 295 296 298 299 299 299 297 296 293 291 292 294 295 295 296 296 297 298 298 296 294 295 297 296 295 293 292 292 292 292 292 290 292 293 292 290 292 294 296 299
297 298 299 299 296 296 294 292 291 294 294 292 294 294 294 298 296 296 296 298 295 294 293 296 295 296 298 298 298 298 297 297 295 295 294 295 295 295 296 296 295 295 294 292 290 290 291 291 292 292 291 291 296 298
295 297 294 294 293 292 293 296 293 295 293 294 293 295 293 293 294 295 297 294 294 296 298 297 296 296 296 295 296 297 296 296 297 294 288 292 293 293 293 294 294 293 293 293 293 293 293 293 291 293 292 291 292 296
297 297 294 294 290 289 289 297 291 293 290 291 294 291 291 293 295 298 292 295 297 299 298 297 297 298 297 296 296 294 295 297 296 296 296 295 294 294 294 294 294 293 292 293 294 294 294 290 293 294 294 293 290 291
298 292 289 290 291 288 293 291 294 292 293 291 290 288 291 292 295 292 290 293 297 297 296 297 297 296 295 295 294 294 294 298 296 294 295 294 293 293 294 294 294 293 293 294 294 294 294 294 291 295 294 292 291 289
289 287 289 286 292 289 288 288 289 289 287 289 289 289 291 294 289 289 289 294 295 295 296 297 297 296 294 294 294 293 295 297 296 293 294 294 293 294 293 294 294 293 293 292 292 292 292 293 293 293 293 292 291 290
285 288 287 289 289 289 289 287 287 287 288 288 289 292 293 290 287 286 292 297 297 296 297 296 296 295 295 296 294 293 293 297 297 293 293 293 292 291 290 290 290 290 291 292 291 290 291 291 291 291 292 292 288 291
283 285 291 296 294 293 290 291 291 290 288 287 289 290 289 285 285 290 297 299 298 299 299 299 298 296 295 295 295 294 295 295 295 293 294 294 292 292 290 288 287 288 291 291 291 290 290 289 290 290 291 292 293 292
289 290 287 290 291 293 288 289 288 288 289 293 292 287 286 286 286 289 293 298 298 299 298 298 298 297 297 295 294 294 293 293 293 293 293 293 293 292 291 291 291 284 289 291 290 290 290 289 289 290 290 291 291 292
288 292 291 288 288 290 290 290 290 293 295 294 290 289 288 287 290 293 295 296 298 296 295 294 295 296 295 294 294 294 295 294 292 288 287 290 290 290 291 290 290 290 291 291 285 285 288 288 289 290 290 291 291 291
287 292 289 288 286 287 290 293 291 294 295 294 292 290 288 289 293 296 295 295 294 293 294 294 294 293 291 291 290 290 292 292 292 291 289 287 288 290 289 289 288 289 290 290 289 290 285 288 288 290 289 289 289 287
291 291 289 289 288 290 291 293 294 294 294 293 294 290 286 287 290 294 294 295 294 294 293 292 292 293 292 291 291 289 288 290 289 288 288 290 289 288 288 288 288 288 288 288 288 288 287 286 286 286 285 285 285 285
289 288 288 285 286 289 291 289 289 288 289 289 288 289 288 287 285 288 291 293 293 291 288 291 291 290 292 292 292 291 287 290 289 287 285 286 286 286 286 286 286 287 287 287 287 286 285 283 283 282 281 281 281 281
288 289 289 288 286 286 288 288 287 286 286 285 285 286 286 286 282 286 291 292 293 292 292 292 291 291 291 290 289 288 287 286 282 280 280 279 278 280 283 284 284 285 285 285 285 285 282 280 279 279 279 278 278 278
Wind_Speed
19 19 20 19 18 17 14 12 8 8 11 14 10 7 6 8 9 7 4 1 5 6 12 8 5 8 5 5 5 7 5 3 5 4 2 3 3 4 5 6 2 5 4 5 7 6 7 12 18 11 16 21 22 25
18 18 19 19 19 19 18 16 13 13 12 14 11 7 6 7 8 6 6 3 3 5 8 11 12 13 11 10 8 3 3 5 4 4 4 4 4 5 7 4 6 2 2 3 5 5 17 15 17 19 19 21 24 26
17 18 19 19 20 21 20 18 16 15 14 15 12 10 7 6 8 7 7 4 4 6 10 9 7 11 9 10 7 5 6 5 3 6 3 2 4 3 3 4 8 7 9 3 10 6 20 19 19 17 21 24 24 24
16 17 17 19 20 21 21 19 18 17 15 15 12 11 8 8 8 8 7 3 3 6 6 4 6 6 7 8 9 8 6 5 4 5 2 2 3 4 3 6 8 4 9 8 14 15 17 12 18 22 22 24 27 28
15 16 16 17 20 22 22 21 19 16 14 13 13 12 9 7 8 6 8 5 6 5 7 8 9 11 9 8 8 8 7 5 6 3 3 4 4 4 4 6 3 2 3 3 6 17 16 19 24 29 23 26 24 25
14 15 15 17 18 22 23 22 19 17 16 15 16 13 10 5 4 4 3 5 8 5 4 5 3 7 9 8 8 6 4 3 4 3 4 3 2 3 3 3 3 9 11 7 6 16 22 27 24 25 25 26 19 25
14 15 15 16 18 21 23 23 20 17 16 15 16 13 10 5 3 4 4 3 4 4 3 6 5 9 6 6 6 5 6 4 4 2 4 4 3 1 2 3 14 16 16 18 17 17 20 19 21 24 20 24 23 23
15 15 15 15 17 21 23 22 20 17 15 13 8 14 10 5 5 6 8 9 7 3 3 4 6 8 10 7 7 5 6 5 4 4 1 2 3 5 3 9 16 16 16 14 16 21 24 21 22 22 22 19 23 24
16 15 15 14 16 20 22 22 19 17 13 5 14 11 3 4 4 3 8 12 3 2 3 4 6 3 6 9 3 6 5 5 4 5 2 4 4 3 8 10 12 13 10 16 20 20 22 23 25 23 23 23 21 23
16 16 14 14 16 21 23 21 18 16 11 17 6 3 3 4 7 15 4 5 4 4 5 6 9 4 1 3 4 3 6 5 4 2 3 3 3 3 3 6 9 11 13 15 17 16 20 22 23 23 21 18 19 23
16 15 14 14 18 23 23 21 20 16 13 2 3 3 0 3 4 4 4 5 4 5 6 6 7 7 5 6 4 5 2 3 3 2 2 2 3 5 6 5 8 11 13 14 15 16 18 21 20 20 19 20 18 24
16 14 14 14 21 24 24 22 26 7 3 5 3 1 1 2 4 4 5 5 6 5 6 8 6 4 3 1 2 3 4 2 1 6 3 4 2 7 9 11 12 12 15 17 17 18 19 22 19 19 19 17 16 20
14 14 14 18 24 25 24 24 19 21 12 3 3 4 4 4 5 6 7 5 4 5 7 6 6 5 5 4 2 3 4 2 2 3 2 4 5 8 10 11 14 14 16 17 18 19 19 22 21 18 18 17 16 14
14 13 15 22 25 26 24 25 28 16 3 3 5 6 6 6 6 6 10 5 5 3 6 6 4 5 2 3 3 4 1 3 3 3 4 4 9 9 10 11 14 16 16 17 18 19 20 19 21 21 18 17 18 16
13 13 19 25 27 25 26 29 20 3 4 4 5 6 8 7 8 10 3 4 4 5 4 3 3 4 2 1 3 3 2 3 2 3 3 5 7 9 10 11 13 13 14 14 15 16 18 18 18 18 17 17 17 16
12 13 9 27 26 29 30 20 3 1 2 3 5 4 4 5 9 4 5 5 4 4 1 3 2 4 2 3 3 3 3 0 3 1 3 4 7 9 10 10 12 12 13 13 12 15 16 16 17 16 17 16 15 16
14 2 27 27 31 29 22 5 3 4 4 4 5 6 8 8 7 5 5 5 4 4 5 2 4 4 3 1 2 0 1 2 2 2 4 6 7 9 10 10 11 12 13 12 13 13 15 16 16 15 17 18 16 16
3 17 32 37 24 13 2 1 4 5 6 7 4 6 8 9 5 5 3 5 4 4 1 2 3 5 3 4 3 4 3 5 4 4 5 5 6 7 8 10 11 12 12 12 12 12 13 15 15 13 16 17 15 15
18 22 37 31 13 6 4 4 3 5 7 5 6 6 7 5 3 5 5 3 1 2 1 3 3 2 4 1 6 5 4 2 2 5 5 2 4 6 6 8 9 11 12 12 12 8 8 10 10 11 12 13 13 11
34 35 29 22 7 3 5 3 4 4 4 4 7 8 7 7 6 5 5 4 5 4 4 3 2 4 4 6 5 4 5 3 1 3 5 3 2 2 7 6 6 8 8 10 9 10 10 7 7 9 11 13 11 14
24 17 17 4 1 2 3 5 5 4 3 4 7 8 5 4 6 6 5 3 4 3 3 1 5 6 7 5 6 5 5 4 5 5 3 2 4 5 5 5 5 5 6 7 8 10 10 10 11 10 9 12 13 12
7 12 4 1 2 2 2 3 3 4 4 2 7 6 6 9 8 7 5 5 3 2 1 3 7 7 7 7 6 6 6 6 7 6 7 5 4 5 6 6 7 7 8 8 8 8 8 9 9 11 7 8 13 12
13 4 3 3 3 2 3 5 4 6 5 7 7 5 6 7 5 7 4 3 3 3 4 5 8 7 9 9 8 6 5 2 5 3 2 3 4 5 5 6 6 8 8 8 9 10 9 7 9 10 11 8 9 12
5 4 4 5 4 4 6 6 4 4 3 5 6 4 7 4 5 4 5 4 4 5 6 10 8 8 7 8 6 6 4 1 5 4 3 4 4 5 5 5 6 7 8 8 9 9 10 11 10 11 11 12 11 8
4 4 4 4 6 7 7 7 5 4 5 5 7 4 4 4 5 6 7 6 7 7 8 9 8 8 7 6 6 5 2 1 2 5 3 3 4 3 4 4 5 8 8 9 10 11 11 11 12 13 13 12 14 13
3 5 7 7 6 6 6 7 6 6 5 6 6 4 4 5 5 4 5 6 7 8 9 8 7 7 7 6 6 6 4 2 2 4 4 4 5 5 5 6 6 7 9 9 10 11 12 13 13 16 14 15 8 13
4 5 5 3 3 4 5 4 5 3 6 5 5 6 5 5 6 4 1 3 4 6 8 7 7 6 6 7 7 5 4 3 4 5 4 3 5 5 6 6 7 8 8 9 10 11 12 13 13 14 13 13 12 12
1 3 7 5 4 3 4 5 6 7 5 3 7 7 6 2 4 2 3 2 4 6 7 6 6 6 7 8 6 6 6 6 5 4 4 5 4 5 6 5 6 4 6 6 8 9 11 12 12 13 13 13 12 12
3 1 5 6 5 4 4 4 2 3 3 3 5 3 4 4 0 1 4 5 6 7 8 8 8 8 7 6 5 5 3 2 2 4 1 3 4 6 6 6 6 6 6 8 1 2 8 11 11 10 13 12 11 12
4 4 3 5 5 2 3 3 4 5 5 7 5 7 8 5 3 3 5 5 6 6 7 8 8 7 7 7 7 6 5 5 5 4 4 5 3 3 5 6 7 7 7 8 8 9 5 11 8 10 12 11 11 12
5 3 3 3 3 4 6 6 7 7 5 5 8 9 7 4 5 7 3 2 4 7 7 7 7 6 6 7 7 7 7 6 7 7 6 4 4 6 6 5 6 6 7 8 8 9 11 11 11 12 13 15 16 15
4 4 3 4 4 3 3 2 2 3 2 3 4 6 6 4 4 3 7 7 1 5 4 4 6 7 7 6 7 7 9 7 7 7 9 7 7 8 7 6 6 6 6 7 8 9 11 12 11 12 12 15 16 17
3 3 2 4 3 3 3 3 3 3 3 3 4 4 5 4 5 3 4 8 2 4 6 8 8 8 9 9 8 6 8 8 9 8 8 7 7 8 7 7 7 7 7 7 8 8 10 11 11 12 13 14 14 15
Wind_Direction
250 245 237 230 220 213 198 207 216 251 262 268 241 249 275 290 299 304 319 133 299 290 296 287 273 269 259 240 287 59 241 219 259 260 259 297 317 282 312 294 200 217 226 215 249 238 269 347 336 324 320 315 317 309
252 247 240 230 217 202 193 198 206 231 251 265 245 234 235 271 289 297 278 142 266 265 300 317 282 274 272 298 306 221 42 23 356 324 339 332 339 316 318 292 9 353 357 288 297 285 311 327 317 321 321 314 302 307
256 251 243 232 217 203 198 197 204 222 233 256 242 237 210 248 266 253 300 332 278 265 262 220 215 214 221 234 240 298 44 5 17 341 310 279 284 299 302 307 334 356 11 320 330 322 329 326 319 312 316 304 329 317
258 254 248 235 219 207 200 197 203 218 229 251 239 233 198 237 258 259 264 277 264 293 284 110 144 209 192 203 209 234 293 315 311 271 279 250 267 275 294 284 310 6 309 344 296 299 334 288 318 307 322 324 327 335
260 256 250 242 223 208 202 193 199 215 230 248 258 223 189 228 267 270 268 248 246 285 318 322 312 235 183 201 218 214 226 252 288 282 253 243 264 308 302 273 75 350 357 291 281 312 295 281 292 299 326 336 331 322
261 255 249 243 227 210 202 192 194 211 223 233 250 219 170 208 261 260 255 191 213 215 287 280 31 179 194 214 229 215 217 221 260 266 269 264 284 308 295 284 98 333 349 294 275 284 277 281 286 341 336 334 335 321
260 258 250 244 230 209 195 190 192 207 214 233 260 159 151 189 217 233 327 343 284 181 253 277 232 180 197 213 174 173 179 197 217 251 248 272 68 128 244 293 346 346 326 314 304 323 318 308 326 329 336 336 332 314
258 256 250 242 230 206 191 188 191 199 209 231 245 144 148 197 253 258 247 215 254 214 254 268 273 192 186 237 197 163 174 192 215 241 179 242 213 222 217 347 348 335 325 313 333 311 298 328 326 328 347 344 334 329
254 252 248 241 228 201 185 185 184 193 193 183 134 141 151 208 214 238 131 151 220 275 270 240 257 143 185 240 220 211 150 199 186 219 184 219 223 68 351 335 330 334 318 297 305 315 327 322 320 346 350 350 334 330
249 247 242 235 220 187 180 175 180 174 176 142 165 167 217 203 148 120 161 161 202 212 225 254 271 271 205 321 259 229 183 223 188 82 116 231 73 62 349 348 317 319 308 317 322 325 324 325 330 350 355 355 346 337
245 243 235 226 198 179 170 167 165 149 124 179 171 213 23 301 196 218 204 206 183 217 208 238 259 283 125 284 336 13 269 223 221 93 269 159 107 352 23 357 336 336 329 327 321 324 321 321 339 350 354 1 355 342
241 233 224 214 181 167 163 163 150 134 144 127 106 43 223 203 221 224 214 189 206 238 168 210 182 215 89 263 215 232 255 254 229 155 232 132 80 4 3 348 349 348 347 341 334 334 333 325 348 358 358 359 358 350
236 225 212 186 168 162 161 158 149 125 118 128 198 187 198 168 208 221 204 201 220 190 162 190 170 199 146 220 271 305 260 231 189 212 90 94 27 15 355 351 336 343 350 347 347 339 333 333 346 4 2 1 357 356
226 216 196 172 162 159 160 149 142 130 123 179 176 182 226 179 229 207 250 228 104 161 154 185 136 203 135 158 210 243 261 296 276 209 105 39 25 355 355 347 337 340 345 348 348 337 338 342 340 351 8 360 3 1
213 201 176 161 157 158 148 146 148 116 182 191 202 211 211 239 263 230 186 104 127 138 151 176 157 177 153 173 246 283 245 231 320 39 44 14 11 345 348 344 337 341 339 345 351 341 336 338 338 338 1 358 13 2
196 166 155 153 152 144 142 136 86 69 227 234 229 232 243 228 244 184 184 133 158 157 157 260 181 166 137 169 247 201 260 333 90 84 287 14 8 345 343 337 334 338 339 346 353 348 330 340 333 340 352 1 10 18
143 150 151 145 138 133 118 96 134 189 212 225 219 229 263 257 204 180 160 158 168 194 215 140 210 160 118 130 246 351 281 83 179 225 65 34 343 341 341 335 338 339 342 347 349 353 340 340 335 350 355 352 360 17
105 143 138 130 124 109 77 130 167 182 209 230 215 213 231 267 198 143 122 128 206 216 209 236 34 203 203 180 143 150 183 179 210 44 59 41 351 342 339 341 340 341 340 344 352 352 349 349 351 349 346 343 348 10
144 138 135 134 128 114 135 166 227 209 218 185 208 241 217 232 198 153 139 134 337 352 154 209 252 237 118 261 100 150 144 184 73 88 92 78 344 321 5 347 342 342 342 348 349 354 345 346 353 339 342 338 336 2
133 135 133 132 143 124 133 143 202 243 188 198 213 207 205 189 166 156 160 177 185 194 183 222 358 84 129 102 163 121 83 104 231 127 80 61 276 357 51 3 6 345 345 356 356 359 347 350 13 356 346 333 340 340
118 129 118 97 94 267 192 157 184 207 189 176 208 197 185 146 172 179 173 178 209 239 162 150 108 91 106 112 96 106 94 47 70 73 105 19 13 23 30 31 27 6 8 14 2 360 4 1 349 348 350 345 337 318
106 101 90 33 99 234 212 199 206 158 171 197 176 192 188 191 188 192 138 206 207 156 136 155 122 136 133 130 130 81 101 126 104 127 210 200 18 25 19 19 16 10 10 12 8 360 9 11 1 335 358 350 345 333
101 94 100 139 137 162 192 151 187 179 172 178 182 200 189 186 174 128 210 178 164 158 187 141 138 159 124 114 123 121 113 180 109 82 82 36 50 32 16 22 18 19 3 5 3 358 4 14 3 351 4 11 7 349
99 111 160 164 191 162 165 188 198 189 182 168 182 198 177 157 128 222 205 185 126 171 165 146 167 138 144 166 167 136 134 114 118 100 35 4 26 40 17 23 33 31 6 348 5 1 358 359 353 5 11 9 4 0
140 150 168 179 210 173 172 156 179 171 171 179 191 161 141 149 199 205 215 166 167 182 158 176 178 169 169 168 118 116 192 241 121 97 63 30 358 2 28 26 53 49 4 356 3 358 356 359 357 1 2 11 7 356
120 167 192 190 172 179 171 161 163 168 162 183 202 149 152 187 206 209 210 157 171 180 169 183 178 173 170 144 142 132 130 126 133 113 78 34 37 13 16 11 8 40 3 352 355 351 353 356 354 356 357 358 7 1
141 193 182 236 181 143 94 75 104 173 197 182 161 162 186 180 213 83 91 92 170 159 167 173 176 171 140 127 105 126 117 89 42 73 94 80 72 42 20 16 13 17 331 353 355 346 352 352 348 352 351 350 357 3
77 184 156 163 102 80 122 166 177 185 199 177 154 185 184 176 70 22 30 172 156 154 155 154 118 115 113 120 133 142 135 118 129 155 152 136 110 71 20 15 30 236 303 358 353 345 356 345 343 346 347 344 351 2
129 199 116 122 112 195 205 200 169 72 359 156 155 98 94 65 313 211 145 145 161 144 140 129 123 118 119 126 109 96 67 4 190 151 175 77 35 33 13 360 357 354 354 341 349 321 3 334 324 341 342 344 355 355
136 174 138 156 158 140 75 53 85 78 69 90 98 106 99 99 116 127 124 134 137 146 145 134 136 153 148 144 121 98 82 68 49 37 21 49 41 26 359 351 348 344 350 345 343 346 17 336 351 1 352 351 358 347
130 187 155 135 96 85 96 85 80 55 52 77 111 119 121 113 55 27 48 132 154 135 139 151 158 147 156 151 147 157 123 100 92 72 21 345 21 24 5 347 342 342 348 346 348 357 4 354 358 1 351 350 352 348
159 181 151 133 104 99 87 59 73 82 55 92 94 122 134 112 96 63 6 344 174 143 113 155 120 94 82 78 73 69 54 83 66 47 26 13 13 3 341 349 345 347 350 347 359 10 15 5 358 359 354 352 349 349
111 132 123 109 125 155 145 124 91 95 87 77 66 54 40 47 77 79 13 351 328 127 101 95 99 90 80 78 85 89 73 82 90 90 80 51 22 355 326 2 350 341 357 7 14 12 32 8 6 0 360 357 354 351